• In Belarus
  • List of Countries
  • For 7 days
  • Water Temperature
  • Satellite Maps
  • Weather Map
  • Weather Widgets
  • user-avatar
    Login

    Hourly Weather Kavarna

    Today, 23 October, Tuesday

    Time Temperature Precipitation Wind Pressure Humidity
    00:00 +12°C° 0 mm 4 mps 765 mmHg 61%
    01:00 +12°C° 0 mm 4 mps 765 mmHg 60%
    02:00 +12°C° 0 mm 4 mps 764 mmHg 60%
    03:00 +11°C° 0 mm 4 mps 764 mmHg 60%
    04:00 +11°C° 0 mm 4 mps 764 mmHg 60%
    05:00 +11°C° 0 mm 4 mps 764 mmHg 60%
    06:00 +11°C° 0 mm 4 mps 764 mmHg 58%
    07:00 +11°C° 0 mm 4 mps 764 mmHg 56%
    08:00 +12°C° 0 mm 4 mps 764 mmHg 53%
    09:00 +13°C° 0 mm 3 mps 764 mmHg 49%
    10:00 +16°C° 0 mm 3 mps 764 mmHg 44%
    11:00 +17°C° 0 mm 3 mps 764 mmHg 40%
    12:00 +18°C° 0 mm 2 mps 763 mmHg 39%
    13:00 +19°C° 0 mm 2 mps 763 mmHg 39%
    14:00 +19°C° 0 mm 2 mps 762 mmHg 38%
    15:00 +18°C° 0 mm 2 mps 762 mmHg 42%
    16:00 +18°C° 0 mm 2 mps 761 mmHg 45%
    17:00 +17°C° 0 mm 2 mps 761 mmHg 49%
    18:00 +16°C° 0 mm 2 mps 761 mmHg 52%
    19:00 +16°C° 0 mm 3 mps 761 mmHg 55%
    20:00 +14°C° 0 mm 3 mps 760 mmHg 58%
    21:00 +14°C° 0 mm 4 mps 760 mmHg 58%
    22:00 +13°C° 0 mm 4 mps 760 mmHg 58%
    23:00 +13°C° 0 mm 5 mps 759 mmHg 58%

    Tomorrow, 24 October, Wednesday

    Time Temperature Precipitation Wind Pressure Humidity
    00:00 +13°C° 0 mm 5 mps 759 mmHg 56%
    01:00 +13°C° 0 mm 6 mps 758 mmHg 54%
    02:00 +13°C° 0 mm 6 mps 757 mmHg 52%
    03:00 +12°C° 0 mm 7 mps 757 mmHg 56%
    04:00 +11°C° 0 mm 7 mps 756 mmHg 60%
    05:00 +11°C° 0 mm 8 mps 756 mmHg 64%
    06:00 +11°C° 0 mm 8 mps 755 mmHg 62%
    07:00 +12°C° 0 mm 9 mps 755 mmHg 61%
    08:00 +12°C° 0 mm 9 mps 754 mmHg 59%
    09:00 +13°C° 0 mm 10 mps 754 mmHg 54%
    10:00 +16°C° 0 mm 10 mps 753 mmHg 49%
    11:00 +17°C° 0 mm 11 mps 752 mmHg 44%
    12:00 +18°C° 0 mm 11 mps 751 mmHg 42%
    13:00 +19°C° 0 mm 11 mps 750 mmHg 40%
    14:00 +19°C° 0 mm 11 mps 748 mmHg 38%
    15:00 +19°C° 0 mm 11 mps 748 mmHg 38%
    16:00 +19°C° 0 mm 10 mps 748 mmHg 38%
    17:00 +18°C° 0 mm 10 mps 747 mmHg 38%
    18:00 +17°C° 0.1 mm 10 mps 748 mmHg 44%
    19:00 +14°C° 0.1 mm 11 mps 749 mmHg 50%
    20:00 +12°C° 0.1 mm 12 mps 749 mmHg 56%
    21:00 +10°C° 0.1 mm 12 mps 750 mmHg 50%
    22:00 +9°C° 0.1 mm 11 mps 751 mmHg 44%
    23:00 +8°C° 0.1 mm 11 mps 753 mmHg 38%

    Day after tomorrow, 25 October, Thursday

    Time Temperature Precipitation Wind Pressure Humidity
    00:00 +7°C° 0 mm 10 mps 753 mmHg 39%
    01:00 +6°C° 0 mm 10 mps 753 mmHg 40%
    02:00 +6°C° 0 mm 9 mps 754 mmHg 41%
    03:00 +6°C° 0 mm 10 mps 754 mmHg 42%
    04:00 +6°C° 0 mm 10 mps 754 mmHg 44%
    05:00 +6°C° 0 mm 10 mps 754 mmHg 46%
    06:00 +6°C° 0 mm 10 mps 755 mmHg 45%
    07:00 +6°C° 0 mm 10 mps 755 mmHg 44%
    08:00 +7°C° 0 mm 10 mps 756 mmHg 43%
    09:00 +8°C° 0 mm 9 mps 756 mmHg 40%
    10:00 +10°C° 0 mm 9 mps 757 mmHg 37%
    11:00 +11°C° 0 mm 8 mps 757 mmHg 34%
    12:00 +11°C° 0 mm 8 mps 757 mmHg 33%
    13:00 +12°C° 0 mm 7 mps 757 mmHg 31%
    14:00 +14°C° 0 mm 7 mps 757 mmHg 30%
    15:00 +12°C° 0 mm 7 mps 757 mmHg 31%
    16:00 +11°C° 0 mm 7 mps 757 mmHg 32%
    17:00 +11°C° 0 mm 7 mps 758 mmHg 33%
    18:00 +10°C° 0 mm 7 mps 758 mmHg 35%
    19:00 +10°C° 0 mm 7 mps 758 mmHg 36%
    20:00 +9°C° 0 mm 7 mps 758 mmHg 37%
    21:00 +9°C° 0 mm 7 mps 758 mmHg 39%
    22:00 +9°C° 0 mm 8 mps 758 mmHg 40%
    23:00 +9°C° 0 mm 8 mps 758 mmHg 42%

    26 October, Friday

    Time Temperature Precipitation Wind Pressure Humidity
    00:00 +8°C° 0 mm 9 mps 757 mmHg 48%
    01:00 +8°C° 0 mm 9 mps 757 mmHg 53%
    02:00 +8°C° 0 mm 9 mps 757 mmHg 59%
    03:00 +8°C° 0 mm 9 mps 757 mmHg 61%
    04:00 +8°C° 0 mm 9 mps 757 mmHg 63%
    05:00 +8°C° 0 mm 9 mps 758 mmHg 65%
    06:00 +8°C° 0 mm 9 mps 758 mmHg 64%
    07:00 +10°C° 0 mm 9 mps 759 mmHg 64%
    08:00 +10°C° 0 mm 8 mps 759 mmHg 63%
    09:00 +12°C° 0 mm 7 mps 760 mmHg 57%
    10:00 +14°C° 0 mm 7 mps 760 mmHg 51%
    11:00 +16°C° 0 mm 6 mps 761 mmHg 44%
    12:00 +16°C° 0 mm 5 mps 761 mmHg 43%
    13:00 +18°C° 0 mm 3 mps 761 mmHg 41%
    14:00 +18°C° 0 mm 2 mps 761 mmHg 40%
    15:00 +18°C° 0 mm 3 mps 761 mmHg 43%
    16:00 +17°C° 0 mm 3 mps 761 mmHg 47%
    17:00 +16°C° 0 mm 3 mps 762 mmHg 50%
    18:00 +15°C° 0 mm 4 mps 762 mmHg 56%
    19:00 +14°C° 0 mm 5 mps 762 mmHg 61%
    20:00 +14°C° 0 mm 6 mps 762 mmHg 67%
    21:00 +14°C° 0 mm 6 mps 762 mmHg 70%
    22:00 +14°C° 0 mm 6 mps 763 mmHg 72%
    23:00 +14°C° 0 mm 6 mps 763 mmHg 75%

    27 October, Saturday

    Time Temperature Precipitation Wind Pressure Humidity
    00:00 +14°C° 0 mm 6 mps 763 mmHg 74%
    01:00 +13°C° 0 mm 6 mps 762 mmHg 72%
    02:00 +13°C° 0 mm 6 mps 762 mmHg 70%
    03:00 +13°C° 0 mm 6 mps 762 mmHg 69%
    04:00 +13°C° 0 mm 6 mps 762 mmHg 68%
    05:00 +12°C° 0 mm 7 mps 762 mmHg 67%
    06:00 +12°C° 0 mm 7 mps 762 mmHg 67%
    07:00 +14°C° 0 mm 7 mps 762 mmHg 67%
    08:00 +14°C° 0 mm 7 mps 762 mmHg 66%
    09:00 +16°C° 0 mm 7 mps 762 mmHg 61%
    10:00 +17°C° 0 mm 8 mps 762 mmHg 56%
    11:00 +20°C° 0 mm 8 mps 762 mmHg 51%
    12:00 +20°C° 0 mm 8 mps 761 mmHg 49%
    13:00 +21°C° 0 mm 8 mps 761 mmHg 48%
    14:00 +22°C° 0 mm 8 mps 760 mmHg 46%
    15:00 +21°C° 0 mm 8 mps 760 mmHg 50%
    16:00 +20°C° 0 mm 8 mps 760 mmHg 53%
    17:00 +20°C° 0 mm 8 mps 760 mmHg 57%
    18:00 +18°C° 0 mm 8 mps 760 mmHg 59%
    19:00 +18°C° 0 mm 8 mps 760 mmHg 62%
    20:00 +18°C° 0 mm 8 mps 760 mmHg 64%
    21:00 +17°C° 0 mm 8 mps 760 mmHg 68%
    22:00 +17°C° 0 mm 8 mps 759 mmHg 72%
    23:00 +16°C° 0 mm 8 mps 759 mmHg 77%

    28 October, Sunday

    Time Temperature Precipitation Wind Pressure Humidity
    00:00 +16°C° 0 mm 8 mps 759 mmHg 79%
    01:00 +16°C° 0 mm 8 mps 759 mmHg 82%
    02:00 +16°C° 0 mm 8 mps 759 mmHg 85%
    03:00 +16°C° 0 mm 9 mps 759 mmHg 85%
    04:00 +16°C° 0 mm 9 mps 759 mmHg 85%
    05:00 +16°C° 0 mm 9 mps 759 mmHg 85%
    06:00 +16°C° 0 mm 9 mps 759 mmHg 83%
    07:00 +17°C° 0 mm 9 mps 759 mmHg 81%
    08:00 +17°C° 0 mm 10 mps 759 mmHg 79%
    09:00 +19°C° 0 mm 10 mps 759 mmHg 72%
    10:00 +21°C° 0 mm 10 mps 759 mmHg 65%
    11:00 +23°C° 0 mm 10 mps 760 mmHg 58%
    12:00 +23°C° 0 mm 10 mps 759 mmHg 55%
    13:00 +24°C° 0 mm 10 mps 759 mmHg 52%
    14:00 +26°C° 0 mm 10 mps 759 mmHg 49%
    15:00 +24°C° 0 mm 9 mps 759 mmHg 52%
    16:00 +23°C° 0 mm 9 mps 759 mmHg 54%
    17:00 +22°C° 0 mm 8 mps 759 mmHg 57%
    18:00 +21°C° 0 mm 8 mps 759 mmHg 60%
    19:00 +20°C° 0 mm 8 mps 759 mmHg 63%
    20:00 +20°C° 0 mm 8 mps 759 mmHg 66%
    21:00 +18°C° 0 mm 8 mps 760 mmHg 68%
    22:00 +18°C° 0 mm 8 mps 760 mmHg 69%
    23:00 +17°C° 0 mm 8 mps 760 mmHg 71%

    29 October, Monday

    Time Temperature Precipitation Wind Pressure Humidity
    00:00 +17°C° 0 mm 8 mps 760 mmHg 73%
    01:00 +17°C° 0 mm 8 mps 760 mmHg 74%
    02:00 +16°C° 0 mm 7 mps 760 mmHg 76%
    03:00 +16°C° 0 mm 8 mps 759 mmHg 77%
    04:00 +16°C° 0 mm 8 mps 759 mmHg 79%
    05:00 +16°C° 0 mm 8 mps 759 mmHg 80%
    06:00 +16°C° 0 mm 8 mps 760 mmHg 79%
    07:00 +17°C° 0 mm 8 mps 760 mmHg 77%
    08:00 +17°C° 0 mm 9 mps 760 mmHg 76%
    09:00 +18°C° 0 mm 9 mps 760 mmHg 70%
    10:00 +19°C° 0 mm 9 mps 760 mmHg 65%
    11:00 +21°C° 0 mm 9 mps 760 mmHg 59%
    12:00 +22°C° 0 mm 8 mps 759 mmHg 57%
    13:00 +22°C° 0 mm 8 mps 759 mmHg 55%
    14:00 +23°C° 0 mm 8 mps 759 mmHg 53%
    15:00 +22°C° 0 mm 8 mps 759 mmHg 56%
    16:00 +21°C° 0 mm 8 mps 759 mmHg 59%
    17:00 +20°C° 0 mm 7 mps 759 mmHg 62%
    18:00 +20°C° 0 mm 7 mps 759 mmHg 62%
    19:00 +20°C° 0 mm 8 mps 759 mmHg 62%
    20:00 +20°C° 0 mm 8 mps 759 mmHg 63%
    21:00 +20°C° 0 mm 8 mps 759 mmHg 65%
    22:00 +20°C° 0 mm 8 mps 759 mmHg 67%
    23:00 +20°C° 0 mm 8 mps 759 mmHg 69%
    Show more